Powrót do katalogu

STARLINK-5956

AktywnyŁącznośćVLEO
NORAD 55994·PAYLOAD·🇺🇸 United States

Wystrzelony Mar 24, 2023 z Cape Canaveral Space Force Station

Loading…

Następne Przeloty (najbliższe 24 godziny)

TLE

ŚwieżeSource: CelesTrak SupGP

Epoka: Sep 14, 2026, 22:11 UTC

1 55994C 23042J   26257.92479167  .00061261  00000+0  22185-2 0  2572
2 55994  43.0028  70.9679 0002067 272.4501 310.4334 15.27553035    10

Śledź STARLINK-5956 w czasie rzeczywistym z AllMySat

Download on the App Store